DW9945 Weather Reports


time (UTC)temp
C
wind
direction
speed
KPH
gust
KPH
rain 1hr
cm
rain 24hr
cm
rain mn
cm
humidity
%
barometer
mb
20260510120018 10 279 6.4 19.3 0.10 1.35 0.56 87 1013.3
20260510115518 10 258 9.7 22.5 0.10 1.35 0.56 85 1013.3
20260510115017 10 246 12.9 22.5 0.13 1.35 0.56 86 1013.3
20260510114517 10 248 12.9 24.1 0.28 1.32 0.53 86 1013.3
20260510114017 11 239 16.1 24.1 0.28 1.27 0.51 84 1013.4
20260510113518 11 245 16.1 27.4 0.23 1.24 0.46 82 1013.4
20260510113017 11 224 17.7 32.2 0.23 1.24 0.46 82 1013.4
20260510112517 11 240 12.9 25.7 0.23 1.24 0.46 83 1013.2
20260510112017 11 245 19.3 27.4 0.23 1.24 0.46 82 1012.9
20260510111517 11 269 11.3 22.5 0.23 1.24 0.46 85 1012.6
20260510111017 11 282 11.3 27.4 0.23 1.24 0.46 86 1012.6
20260510110518 11 288 16.1 32.2 0.23 1.24 0.46 87 1012.5
20260510110017 11 278 11.3 24.1 0.23 1.24 0.46 87 1012.4
20260510105017 12 223 14.5 32.2 0.23 1.22 0.43 84 1012.3
20260510104517 13 226 11.3 24.1 0.05 1.04 0.25 80 1012.1
20260510104017 13 185 16.1 33.8 0.00 0.99 0.23 77 1011.9
20260510103018 13 188 19.3 40.2 0.00 0.99 0.23 76 1011.8
20260510101519 13 177 22.5 37.0 0.00 1.02 0.23 79 1012.0
20260510101019 13 186 16.1 32.2 0.00 1.02 0.23 80 1012.1
20260510100508 13 174 14.5 27.4 0.00 1.02 0.23 81 1012.1
20260510100019 13 170 16.1 33.8 0.00 1.02 0.23 82 1012.2
20260510095518 12 186 12.9 22.5 0.00 1.02 0.23 84 1012.3
20260510095019 12 180 11.3 19.3 0.00 1.02 0.23 83 1012.2
20260510094519 12 182 14.5 24.1 0.00 1.02 0.23 82 1012.4
20260510094008 12 166 12.9 19.3 0.00 1.02 0.23 81 1012.4
20260510093519 12 182 14.5 24.1 0.00 1.02 0.23 82 1012.3
20260510093019 12 187 12.9 20.9 0.00 1.02 0.23 84 1012.4
20260510092508 12 191 11.3 19.3 0.00 1.02 0.23 85 1012.4
20260510092019 12 183 11.3 19.3 0.00 1.04 0.23 85 1012.6
20260510091019 12 175 12.9 20.9 0.00 1.09 0.23 85 1012.6
20260510090008 11 191 9.7 19.3 0.03 1.09 0.23 89 1012.7
20260510085519 11 188 9.7 16.1 0.03 1.09 0.23 89 1012.7
20260510085019 11 184 9.7 20.9 0.03 1.09 0.23 89 1012.8
20260510084519 11 174 11.3 19.3 0.05 1.09 0.23 89 1013.0
20260510084018 11 177 9.7 19.3 0.05 1.09 0.23 89 1012.8
20260510083019 11 188 12.9 24.1 0.05 1.09 0.23 89 1012.9
20260510082518 11 183 11.3 16.1 0.05 1.09 0.23 90 1012.8
20260510082019 11 202 9.7 24.1 0.05 1.09 0.23 89 1013.0
20260510081519 11 186 11.3 24.1 0.05 1.09 0.23 88 1012.8
20260510081019 11 194 11.3 22.5 0.05 1.09 0.23 88 1012.8
20260510080508 11 207 14.5 20.9 0.05 1.09 0.23 87 1013.1
20260510080020 11 196 9.7 19.3 0.03 1.09 0.20 89 1013.1
20260510075519 11 197 11.3 19.3 0.03 1.09 0.20 89 1013.2
20260510074019 11 194 11.3 16.1 0.00 1.07 0.18 89 1013.3
20260510073519 11 182 8.0 16.1 0.00 1.07 0.18 90 1013.2
20260510073019 11 197 9.7 16.1 0.00 1.07 0.18 90 1013.1
20260510071520 10 178 6.4 11.3 0.00 1.07 0.18 92 1013.0
20260510071019 10 180 4.8 8.0 0.00 1.07 0.18 92 1013.1
20260510070522 10 180 4.8 9.7 0.00 1.07 0.18 92 1013.1
20260510070019 10 192 4.8 11.3 0.00 1.07 0.18 92 1013.1
20260510065518 10 205 3.2 4.8 0.00 1.07 0.18 93 1013.1
20260510065019 10 175 6.4 9.7 0.00 1.07 0.18 93 1013.0
20260510064519 10 190 8.0 9.7 0.00 1.07 0.18 93 1012.9
20260510064019 10 189 3.2 8.0 0.00 1.07 0.18 93 1012.8
20260510063519 9 197 4.8 8.0 0.00 1.07 0.18 93 1012.9
20260510063019 9 194 3.2 8.0 0.00 1.07 0.18 94 1012.8
20260510062518 9 168 0.0 8.0 0.00 1.07 0.18 94 1012.8
20260510062019 9 174 1.6 4.8 0.00 1.07 0.18 94 1012.8
20260510060507 8 186 0.0 1.6 0.00 1.07 0.18 94 1012.7
20260510060019 8 186 0.0 1.6 0.00 1.07 0.18 94 1012.8
20260510055518 8 186 0.0 1.6 0.00 1.07 0.18 94 1012.7
20260510055018 8 186 0.0 3.2 0.00 1.07 0.18 94 1012.6
20260510054519 8 186 1.6 4.8 0.00 1.07 0.18 94 1012.6
20260510054007 8 200 3.2 4.8 0.00 1.07 0.18 94 1012.5
20260510053518 8 193 3.2 4.8 0.00 1.07 0.18 94 1012.6
20260510053019 8 196 1.6 4.8 0.00 1.07 0.18 95 1012.5
20260510052518 8 196 3.2 4.8 0.00 1.07 0.18 95 1012.4
20260510052018 8 196 0.0 0.0 0.00 1.07 0.18 95 1012.3
20260510051518 8 196 0.0 4.8 0.00 1.07 0.18 94 1012.3
20260510051018 8 196 0.0 0.0 0.00 1.07 0.18 93 1012.3
20260510050518 8 196 0.0 0.0 0.00 1.07 0.18 93 1012.4
20260510050019 8 196 0.0 0.0 0.00 1.07 0.18 94 1012.3
20260510045019 8 196 0.0 0.0 0.00 1.07 0.18 94 1012.4
20260510044519 8 196 0.0 0.0 0.00 1.07 0.18 93 1012.4
20260510043507 8 196 0.0 0.0 0.00 1.07 0.18 93 1012.5
20260510043019 8 196 0.0 0.0 0.00 1.07 0.18 93 1012.4
20260510042518 8 196 0.0 0.0 0.00 1.07 0.18 93 1012.5
20260510042018 8 196 0.0 3.2 0.00 1.07 0.18 93 1012.6
20260510041519 8 196 3.2 4.8 0.00 1.07 0.18 94 1012.5
20260510041019 8 164 1.6 8.0 0.00 1.07 0.18 94 1012.4
20260510040519 8 150 1.6 4.8 0.00 1.07 0.18 94 1012.4
20260510040019 8 150 0.0 3.2 0.00 1.07 0.18 94 1012.5
20260510035508 8 150 0.0 0.0 0.00 1.07 0.18 94 1012.5
20260510034519 9 150 1.6 4.8 0.00 1.07 0.18 94 1012.5
20260510034019 9 164 1.6 4.8 0.00 1.07 0.18 94 1012.7
20260510033519 9 171 3.2 8.0 0.00 1.07 0.18 94 1012.8
20260510033018 9 185 3.2 4.8 0.00 1.07 0.18 94 1012.8
20260510032518 9 197 1.6 4.8 0.00 1.07 0.18 93 1012.8
20260510032018 9 169 3.2 4.8 0.00 1.07 0.18 94 1012.9
20260510031518 9 173 1.6 4.8 0.00 1.07 0.18 93 1012.9
20260510031018 9 181 3.2 4.8 0.00 1.07 0.18 93 1013.0
20260510030519 9 191 0.0 4.8 0.00 1.07 0.18 94 1013.0
20260510025008 9 190 8.0 11.3 0.00 1.07 0.18 93 1013.0
20260510023519 9 186 4.8 8.0 0.00 1.07 0.18 93 1013.1
20260510023019 10 175 3.2 4.8 0.00 1.07 0.18 93 1013.1
20260510022519 10 191 4.8 9.7 0.00 1.07 0.18 93 1013.1
20260510022018 10 193 4.8 8.0 0.00 1.07 0.18 93 1013.1
20260510021519 10 191 4.8 11.3 0.00 1.07 0.18 93 1013.2
20260510021018 10 182 8.0 9.7 0.00 1.07 0.18 93 1013.2
20260510020519 10 192 4.8 9.7 0.00 1.07 0.18 93 1013.0
20260510020018 10 183 3.2 8.0 0.00 1.07 0.18 93 1013.0
20260510015518 10 188 4.8 8.0 0.00 1.07 0.18 93 1013.0
20260510015008 10 178 4.8 8.0 0.00 1.07 0.18 92 1013.0
20260510014519 10 191 3.2 4.8 0.00 1.07 0.18 92 1013.0
20260510014018 10 189 4.8 8.0 0.00 1.07 0.18 92 1013.0
20260510013507 10 201 0.0 8.0 0.00 1.07 0.18 92 1013.0
20260510013019 10 201 3.2 8.0 0.03 1.07 0.18 92 1013.0
20260510012018 10 188 4.8 8.0 0.03 1.07 0.18 92 1013.1
20260510011508 10 188 4.8 8.0 0.03 1.07 0.18 92 1013.0
20260510011018 10 165 4.8 8.0 0.03 1.07 0.18 92 1013.0
20260510010508 10 191 3.2 4.8 0.03 1.07 0.18 92 1013.0
20260510010008 10 189 4.8 8.0 0.03 1.07 0.18 91 1013.2
20260510005507 10 191 1.6 8.0 0.03 1.07 0.18 91 1013.1
20260510004507 10 186 3.2 8.0 0.03 1.07 0.18 91 1013.1
20260510004007 10 160 3.2 9.7 0.03 1.07 0.18 91 1013.1
20260510003507 10 183 6.4 11.3 0.05 1.07 0.18 90 1013.2
20260510003008 10 196 8.0 11.3 0.03 1.04 0.15 90 1013.3
20260510002508 10 190 8.0 12.9 0.05 1.04 0.15 90 1013.3
20260510002008 10 187 4.8 9.7 0.05 1.04 0.15 90 1013.2
20260510001507 10 217 3.2 9.7 0.05 1.04 0.15 90 1013.2
20260510001008 10 208 4.8 12.9 0.15 1.04 0.15 90 1013.2
20260510000508 10 210 4.8 14.5 0.15 1.04 0.15 90 1013.2
20260510000008 10 200 8.0 14.5 0.15 1.04 0.15 90 1013.2
20260509235510 10 205 8.0 11.3 0.15 1.04 0.15 90 1013.2
20260509235007 10 201 4.8 9.7 0.15 1.04 0.15 90 1013.3
20260509234507 10 206 8.0 12.9 0.15 1.04 0.15 90 1013.3
20260509234008 10 209 6.4 12.9 0.15 1.04 0.15 91 1013.2
20260509233508 10 216 8.0 12.9 0.15 1.02 0.15 91 1013.2
20260509233007 10 214 8.0 14.5 0.15 1.02 0.15 91 1013.4
20260509232507 10 199 8.0 14.5 0.13 0.99 0.13 92 1013.4
20260509232007 10 240 6.4 12.9 0.13 0.99 0.13 92 1013.6
20260509231507 10 211 3.2 9.7 0.10 0.99 0.10 92 1013.5
20260509231007 10 197 8.0 12.9 0.00 0.89 0.00 91 1013.6
20260509230507 10 187 4.8 9.7 0.00 0.89 0.00 90 1013.3
20260509230008 10 181 4.8 8.0 0.00 0.89 0.00 90 1013.2
20260509225507 10 197 4.8 8.0 0.00 0.89 0.00 90 1013.1
20260509224508 10 211 1.6 4.8 0.00 0.89 0.00 90 1013.1
20260509223508 10 206 3.2 8.0 0.00 0.89 0.00 89 1013.0
20260509223008 10 193 8.0 14.5 0.00 0.89 0.00 89 1013.0
20260509222507 10 176 4.8 11.3 0.00 0.89 0.00 89 1012.8
20260509222007 10 189 6.4 9.7 0.03 0.89 0.00 87 1012.6
20260509221507 10 187 6.4 11.3 0.05 0.89 0.00 86 1012.6
20260509220508 10 211 6.4 16.1 0.08 0.89 0.00 86 1012.6
20260509215507 10 256 8.0 16.1 0.23 0.89 0.89 88 1012.5
20260509215007 10 252 4.8 12.9 0.23 0.89 0.89 89 1012.5
20260509214508 10 250 8.0 12.9 0.23 0.89 0.89 89 1012.5
20260509214007 10 261 8.0 14.5 0.23 0.89 0.89 89 1012.5
20260509213507 10 262 9.7 19.3 0.23 0.89 0.89 89 1012.5
20260509213007 10 267 9.7 20.9 0.23 0.89 0.89 90 1012.6
20260509212507 10 283 8.0 14.5 0.23 0.89 0.89 90 1012.6
20260509212007 10 287 11.3 19.3 0.20 0.86 0.86 89 1012.6
20260509211507 10 280 8.0 22.5 0.20 0.86 0.86 89 1012.7
20260509211007 10 273 14.5 27.4 0.15 0.81 0.81 88 1012.7
20260509210008 11 294 12.9 24.1 0.13 0.79 0.79 85 1012.6
20260509205507 12 275 22.5 41.8 0.00 0.66 0.66 78 1012.6
20260509204507 13 194 14.5 25.7 0.00 0.66 0.66 75 1011.1
20260509204007 13 191 11.3 22.5 0.00 0.66 0.66 75 1011.0
20260509203508 13 188 16.1 25.7 0.00 0.66 0.66 74 1011.0
20260509203007 13 196 14.5 24.1 0.00 0.66 0.66 75 1010.9
20260509202507 13 188 11.3 22.5 0.00 0.66 0.66 75 1010.8
20260509202007 13 191 11.3 24.1 0.00 0.66 0.66 75 1010.7
20260509201507 13 194 11.3 25.7 0.00 0.66 0.66 76 1010.6
20260509201007 13 179 6.4 16.1 0.00 0.66 0.66 76 1010.5
20260509200507 13 186 9.7 19.3 0.00 0.66 0.66 76 1010.3
20260509200008 13 188 14.5 24.1 0.00 0.66 0.66 76 1010.3
20260509195507 13 182 9.7 19.3 0.00 0.66 0.66 76 1010.2
20260509195007 13 177 9.7 19.3 0.00 0.66 0.66 76 1010.1
20260509194507 13 173 9.7 19.3 0.00 0.66 0.66 76 1010.0
20260509194007 13 179 9.7 20.9 0.00 0.66 0.66 76 1009.9
20260509193507 13 171 11.3 22.5 0.00 0.66 0.66 77 1009.8
20260509193007 13 193 12.9 20.9 0.00 0.66 0.66 79 1009.7
20260509192507 13 190 9.7 19.3 0.00 0.66 0.66 82 1009.6
20260509192007 13 167 9.7 16.1 0.00 0.66 0.66 83 1009.4
20260509191507 13 160 6.4 11.3 0.00 0.66 0.66 83 1009.4
20260509191007 13 131 0.0 4.8 0.00 0.66 0.66 83 1009.4
20260509190507 13 154 1.6 4.8 0.00 0.66 0.66 83 1009.5
20260509190008 14 206 4.8 9.7 0.00 0.66 0.66 82 1009.4
20260509185507 14 191 4.8 9.7 0.00 0.66 0.66 82 1009.4
20260509185007 14 167 4.8 11.3 0.00 0.66 0.66 82 1009.2
20260509184509 14 179 8.0 16.1 0.00 0.66 0.66 82 1009.3
20260509184010 14 154 8.0 14.5 0.00 0.66 0.66 81 1009.3
20260509183512 14 167 9.7 19.3 0.00 0.66 0.66 81 1009.3
20260509183008 14 163 6.4 16.1 0.00 0.66 0.66 80 1009.3
20260509182507 14 147 9.7 16.1 0.00 0.66 0.66 80 1009.3
20260509182007 14 173 6.4 14.5 0.00 0.66 0.66 80 1009.3
20260509181507 14 180 11.3 19.3 0.00 0.66 0.66 79 1009.2
20260509180507 14 184 11.3 19.3 0.00 0.66 0.66 78 1009.4
20260509180008 14 176 11.3 19.3 0.00 0.66 0.66 78 1009.4
20260509175507 14 167 9.7 16.1 0.00 0.66 0.66 79 1009.4
20260509175007 14 180 9.7 16.1 0.03 0.66 0.66 79 1009.5
20260509174507 13 174 9.7 19.3 0.13 0.66 0.66 80 1009.4
20260509174007 13 182 8.0 19.3 0.15 0.66 0.66 83 1009.4
20260509173507 13 169 8.0 14.5 0.15 0.66 0.66 83 1009.4
20260509173007 13 157 3.2 9.7 0.15 0.66 0.66 85 1009.4
20260509172507 13 147 4.8 11.3 0.15 0.66 0.66 85 1009.4
20260509172007 13 161 8.0 14.5 0.15 0.66 0.66 85 1009.4
20260509171507 13 165 8.0 19.3 0.15 0.66 0.66 86 1009.5
20260509171007 13 174 8.0 14.5 0.15 0.66 0.66 85 1009.6
20260509165506 13 197 9.7 22.5 0.15 0.66 0.66 81 1009.4
20260509165013 14 188 17.7 32.2 0.15 0.64 0.64 78 1009.6
20260509164507 15 172 11.3 20.9 0.05 0.53 0.53 78 1009.6
20260509164007 15 161 8.0 11.3 0.03 0.51 0.51 75 1009.2
20260509163507 16 189 1.6 4.8 0.00 0.51 0.51 73 1009.0
20260509163007 16 243 3.2 8.0 0.00 0.51 0.51 71 1009.0
20260509162507 16 200 4.8 9.7 0.00 0.51 0.51 70 1008.9
20260509161507 16 254 0.0 4.8 0.00 0.51 0.51 71 1008.9
20260509161006 16 238 4.8 11.3 0.00 0.51 0.51 68 1008.9
20260509160507 16 239 4.8 4.8 0.00 0.51 0.51 71 1008.9
20260509160007 16 281 1.6 4.8 0.00 0.51 0.51 71 1009.0
20260509155507 16 278 3.2 4.8 0.00 0.51 0.51 71 1009.0
20260509155007 15 5 0.0 4.8 0.00 0.51 0.51 74 1009.0
20260509154507 15 263 1.6 4.8 0.00 0.51 0.51 74 1009.1
20260509154007 15 182 4.8 9.7 0.00 0.51 0.51 74 1009.1
20260509153507 15 179 4.8 11.3 0.00 0.51 0.51 74 1009.2
20260509153013 15 150 3.2 9.7 0.00 0.51 0.51 76 1009.3
20260509152506 15 166 3.2 4.8 0.00 0.51 0.51 79 1009.6
20260509152006 15 205 3.2 9.7 0.00 0.51 0.51 77 1009.6
20260509151007 15 192 6.4 14.5 0.00 0.51 0.51 76 1009.7
20260509150507 15 169 6.4 11.3 0.00 0.51 0.51 75 1009.7
20260509150007 15 186 6.4 19.3 0.00 0.51 0.51 75 1009.7
20260509145007 15 146 8.0 16.1 0.00 0.51 0.51 75 1009.5
20260509144006 15 134 6.4 14.5 0.00 0.51 0.51 76 1009.6
20260509143506 14 156 4.8 16.1 0.00 0.51 0.51 76 1009.4
20260509143006 14 153 6.4 9.7 0.00 0.51 0.51 76 1009.6
20260509142506 13 150 4.8 8.0 0.05 0.51 0.51 76 1009.7
20260509142006 13 149 4.8 12.9 0.08 0.51 0.51 78 1009.7
20260509141506 13 147 4.8 14.5 0.10 0.51 0.51 78 1010.0
20260509141006 13 134 4.8 11.3 0.15 0.51 0.51 80 1010.0
20260509140506 12 88 3.2 4.8 0.23 0.51 0.51 85 1010.1
20260509135507 12 114 3.2 8.0 0.33 0.51 0.51 85 1010.0
20260509135006 12 118 3.2 8.0 0.36 0.51 0.51 87 1010.2
20260509134506 12 156 1.6 8.0 0.41 0.51 0.51 88 1010.3
20260509134006 11 196 0.0 8.0 0.41 0.51 0.51 88 1010.3
20260509133506 11 172 4.8 9.7 0.41 0.51 0.51 87 1010.7
20260509133006 11 187 9.7 12.9 0.41 0.51 0.51 87 1010.7
20260509132506 12 197 4.8 14.5 0.33 0.43 0.43 90 1010.7
20260509132006 12 246 11.3 19.3 0.33 0.43 0.43 89 1010.7
20260509131506 12 262 8.0 16.1 0.30 0.41 0.41 91 1010.7
20260509131006 12 287 8.0 16.1 0.23 0.33 0.33 90 1010.8
20260509130506 12 283 16.1 25.7 0.18 0.28 0.28 89 1010.8
20260509130007 12 292 16.1 22.5 0.13 0.23 0.23 88 1010.4
20260509125507 12 278 8.0 14.5 0.08 0.18 0.18 88 1010.3
20260509125007 12 285 14.5 19.3 0.05 0.15 0.15 87 1010.0
20260509124507 13 290 11.3 22.5 0.00 0.13 0.10 86 1010.0
20260509124006 13 307 14.5 20.9 0.00 0.15 0.10 85 1009.9
20260509123507 13 308 16.1 19.3 0.00 0.20 0.10 83 1009.9
20260509122507 13 312 12.9 19.3 0.00 0.33 0.10 80 1009.7
20260509122006 14 302 14.5 22.5 0.00 0.33 0.10 80 1009.9
20260509121506 14 282 12.9 20.9 0.00 0.33 0.10 79 1009.9
20260509120506 15 276 4.8 19.3 0.00 0.33 0.10 76 1009.8